• In Netherlands
  • List of Countries
  • For 7 days
  • Water Temperature
  • Satellite Maps
  • Weather Map
  • Weather Widgets
  • user-avatar
    Login

    Hourly Weather Qala i Naw

    Today, 26 May, Friday

    Time Temperature Precipitation Wind Pressure Humidity
    00:00 +26°C° 0 mm 2 mps 681 mmHg 19%
    01:00 +26°C° 0 mm 2 mps 681 mmHg 19%
    02:00 +25°C° 0 mm 2 mps 681 mmHg 20%
    03:00 +25°C° 0 mm 2 mps 681 mmHg 21%
    04:00 +24°C° 0 mm 2 mps 681 mmHg 22%
    05:00 +25°C° 0 mm 2 mps 681 mmHg 23%
    06:00 +26°C° 0 mm 3 mps 682 mmHg 23%
    07:00 +27°C° 0 mm 3 mps 682 mmHg 23%
    08:00 +28°C° 0 mm 3 mps 683 mmHg 21%
    09:00 +30°C° 0 mm 3 mps 683 mmHg 20%
    10:00 +31°C° 0 mm 3 mps 683 mmHg 19%
    11:00 +33°C° 0 mm 3 mps 683 mmHg 17%
    12:00 +34°C° 0 mm 3 mps 683 mmHg 16%
    13:00 +35°C° 0 mm 3 mps 683 mmHg 14%
    14:00 +36°C° 0 mm 3 mps 683 mmHg 14%
    15:00 +36°C° 0 mm 3 mps 682 mmHg 14%
    16:00 +36°C° 0 mm 4 mps 682 mmHg 13%
    17:00 +35°C° 0 mm 3 mps 682 mmHg 15%
    18:00 +33°C° 0 mm 3 mps 681 mmHg 17%
    19:00 +31°C° 0 mm 3 mps 681 mmHg 19%
    20:00 +30°C° 0 mm 2 mps 681 mmHg 20%
    21:00 +29°C° 0 mm 2 mps 681 mmHg 21%
    22:00 +28°C° 0 mm 2 mps 682 mmHg 22%
    23:00 +27°C° 0 mm 2 mps 681 mmHg 24%

    Tomorrow, 27 May, Saturday

    Time Temperature Precipitation Wind Pressure Humidity
    00:00 +27°C° 0 mm 2 mps 681 mmHg 25%
    01:00 +26°C° 0 mm 2 mps 681 mmHg 26%
    02:00 +25°C° 0 mm 2 mps 681 mmHg 28%
    03:00 +24°C° 0 mm 2 mps 680 mmHg 30%
    04:00 +24°C° 0 mm 2 mps 680 mmHg 31%
    05:00 +25°C° 0 mm 2 mps 681 mmHg 29%
    06:00 +27°C° 0 mm 2 mps 681 mmHg 26%
    07:00 +28°C° 0 mm 1 mps 682 mmHg 23%
    08:00 +30°C° 0 mm 1 mps 682 mmHg 20%
    09:00 +32°C° 0 mm 1 mps 682 mmHg 17%
    10:00 +34°C° 0 mm 2 mps 682 mmHg 13%
    11:00 +35°C° 0 mm 2 mps 682 mmHg 12%
    12:00 +37°C° 0 mm 3 mps 681 mmHg 11%
    13:00 +38°C° 0 mm 3 mps 681 mmHg 10%
    14:00 +38°C° 0 mm 3 mps 681 mmHg 9%
    15:00 +38°C° 0 mm 3 mps 680 mmHg 9%
    16:00 +38°C° 0 mm 4 mps 680 mmHg 9%
    17:00 +37°C° 0 mm 3 mps 680 mmHg 10%
    18:00 +35°C° 0 mm 3 mps 679 mmHg 12%
    19:00 +32°C° 0 mm 2 mps 679 mmHg 13%
    20:00 +31°C° 0 mm 2 mps 679 mmHg 14%
    21:00 +30°C° 0 mm 2 mps 679 mmHg 15%
    22:00 +29°C° 0 mm 1 mps 679 mmHg 16%
    23:00 +28°C° 0 mm 1 mps 679 mmHg 17%

    Day after tomorrow, 28 May, Sunday

    Time Temperature Precipitation Wind Pressure Humidity
    00:00 +27°C° 0 mm 1 mps 679 mmHg 17%
    01:00 +27°C° 0 mm 1 mps 678 mmHg 18%
    02:00 +26°C° 0 mm 1 mps 678 mmHg 18%
    03:00 +26°C° 0 mm 1 mps 678 mmHg 19%
    04:00 +25°C° 0 mm 1 mps 678 mmHg 19%
    05:00 +27°C° 0 mm 1 mps 679 mmHg 17%
    06:00 +29°C° 0 mm 1 mps 679 mmHg 15%
    07:00 +31°C° 0 mm 1 mps 680 mmHg 13%
    08:00 +33°C° 0 mm 1 mps 680 mmHg 12%
    09:00 +34°C° 0 mm 1 mps 681 mmHg 10%
    10:00 +36°C° 0 mm 1 mps 681 mmHg 9%
    11:00 +38°C° 0 mm 2 mps 681 mmHg 8%
    12:00 +39°C° 0 mm 3 mps 681 mmHg 8%
    13:00 +40°C° 0 mm 3 mps 681 mmHg 7%
    14:00 +41°C° 0 mm 4 mps 680 mmHg 7%
    15:00 +41°C° 0 mm 4 mps 680 mmHg 7%
    16:00 +41°C° 0 mm 4 mps 679 mmHg 7%
    17:00 +38°C° 0 mm 4 mps 679 mmHg 8%
    18:00 +36°C° 0 mm 3 mps 679 mmHg 9%
    19:00 +34°C° 0 mm 3 mps 679 mmHg 11%
    20:00 +32°C° 0 mm 2 mps 679 mmHg 11%
    21:00 +31°C° 0 mm 2 mps 679 mmHg 12%
    22:00 +30°C° 0 mm 2 mps 680 mmHg 13%
    23:00 +29°C° 0 mm 2 mps 679 mmHg 13%

    29 May, Monday

    Time Temperature Precipitation Wind Pressure Humidity
    00:00 +29°C° 0 mm 2 mps 679 mmHg 13%
    01:00 +28°C° 0 mm 2 mps 679 mmHg 14%
    02:00 +28°C° 0 mm 2 mps 678 mmHg 14%
    03:00 +27°C° 0 mm 2 mps 678 mmHg 14%
    04:00 +27°C° 0 mm 2 mps 678 mmHg 14%
    05:00 +28°C° 0 mm 2 mps 679 mmHg 13%
    06:00 +30°C° 0 mm 2 mps 680 mmHg 12%
    07:00 +32°C° 0 mm 2 mps 680 mmHg 11%
    08:00 +34°C° 0 mm 2 mps 681 mmHg 11%
    09:00 +35°C° 0 mm 3 mps 681 mmHg 10%
    10:00 +36°C° 0 mm 3 mps 681 mmHg 10%
    11:00 +37°C° 0 mm 3 mps 681 mmHg 10%
    12:00 +38°C° 0 mm 4 mps 681 mmHg 9%
    13:00 +40°C° 0 mm 4 mps 680 mmHg 9%
    14:00 +40°C° 0 mm 4 mps 680 mmHg 9%
    15:00 +40°C° 0 mm 5 mps 680 mmHg 9%
    16:00 +40°C° 0 mm 5 mps 680 mmHg 9%
    17:00 +37°C° 0 mm 5 mps 680 mmHg 11%
    18:00 +36°C° 0 mm 5 mps 680 mmHg 13%
    19:00 +34°C° 0 mm 5 mps 681 mmHg 15%
    20:00 +33°C° 0 mm 5 mps 681 mmHg 17%
    21:00 +30°C° 0 mm 5 mps 682 mmHg 20%
    22:00 +29°C° 0 mm 5 mps 682 mmHg 22%
    23:00 +28°C° 0 mm 4 mps 682 mmHg 23%

    30 May, Tuesday

    Time Temperature Precipitation Wind Pressure Humidity
    00:00 +27°C° 0 mm 4 mps 683 mmHg 24%
    01:00 +26°C° 0 mm 4 mps 683 mmHg 25%
    02:00 +25°C° 0 mm 4 mps 683 mmHg 28%
    03:00 +25°C° 0 mm 4 mps 683 mmHg 31%
    04:00 +23°C° 0 mm 4 mps 683 mmHg 34%
    05:00 +23°C° 0 mm 4 mps 684 mmHg 33%
    06:00 +25°C° 0 mm 5 mps 684 mmHg 33%
    07:00 +25°C° 0 mm 5 mps 685 mmHg 32%
    08:00 +27°C° 0 mm 5 mps 685 mmHg 30%
    09:00 +28°C° 0 mm 6 mps 685 mmHg 28%
    10:00 +29°C° 0 mm 6 mps 684 mmHg 26%
    11:00 +30°C° 0 mm 6 mps 684 mmHg 25%
    12:00 +32°C° 0 mm 7 mps 684 mmHg 24%
    13:00 +32°C° 0 mm 7 mps 683 mmHg 22%
    14:00 +32°C° 0 mm 7 mps 683 mmHg 23%
    15:00 +32°C° 0 mm 8 mps 683 mmHg 23%
    16:00 +32°C° 0 mm 8 mps 683 mmHg 23%
    17:00 +29°C° 0 mm 7 mps 683 mmHg 24%
    18:00 +28°C° 0 mm 7 mps 683 mmHg 26%
    19:00 +26°C° 0 mm 6 mps 683 mmHg 27%
    20:00 +25°C° 0 mm 5 mps 683 mmHg 27%
    21:00 +23°C° 0 mm 4 mps 683 mmHg 27%
    22:00 +22°C° 0 mm 4 mps 683 mmHg 27%
    23:00 +21°C° 0 mm 3 mps 682 mmHg 26%

    31 May, Wednesday

    Time Temperature Precipitation Wind Pressure Humidity
    00:00 +21°C° 0 mm 3 mps 682 mmHg 25%
    01:00 +20°C° 0 mm 2 mps 681 mmHg 25%
    02:00 +19°C° 0 mm 2 mps 681 mmHg 25%
    03:00 +19°C° 0 mm 2 mps 681 mmHg 25%
    04:00 +18°C° 0 mm 2 mps 681 mmHg 26%
    05:00 +19°C° 0 mm 2 mps 681 mmHg 24%
    06:00 +20°C° 0 mm 2 mps 681 mmHg 22%
    07:00 +21°C° 0 mm 2 mps 682 mmHg 20%
    08:00 +24°C° 0 mm 2 mps 682 mmHg 18%
    09:00 +25°C° 0 mm 3 mps 682 mmHg 16%
    10:00 +27°C° 0 mm 3 mps 682 mmHg 14%
    11:00 +28°C° 0 mm 4 mps 681 mmHg 12%
    12:00 +29°C° 0 mm 4 mps 681 mmHg 11%
    13:00 +30°C° 0 mm 5 mps 681 mmHg 10%
    14:00 +30°C° 0 mm 5 mps 681 mmHg 10%
    15:00 +32°C° 0 mm 5 mps 681 mmHg 9%
    16:00 +32°C° 0 mm 5 mps 680 mmHg 9%
    17:00 +29°C° 0 mm 5 mps 680 mmHg 9%
    18:00 +27°C° 0 mm 4 mps 680 mmHg 10%
    19:00 +26°C° 0 mm 3 mps 680 mmHg 11%
    20:00 +25°C° 0 mm 3 mps 680 mmHg 11%
    21:00 +24°C° 0 mm 2 mps 680 mmHg 12%
    22:00 +23°C° 0 mm 2 mps 680 mmHg 13%
    23:00 +21°C° 0 mm 2 mps 680 mmHg 13%
    Show more